| time (UTC) | temp F | wind direction | speed knots | gust knots | rain 1hr in | rain 24hr in | rain mn in | humidity % | barometer mb |
| 20260507234551 | 54 | 270 | 0.0 | 0.9 | 0.00 | 0.00 | 0.00 | 85 | 1014.3 |
| 20260507233052 | 55 | 255 | 0.0 | 0.9 | 0.00 | 0.00 | 0.00 | 85 | 1014.3 |
| 20260507231551 | 54 | 270 | 0.0 | 0.0 | 0.00 | 0.00 | 0.00 | 85 | 1014.3 |
| 20260507230106 | 55 | 270 | 0.0 | 0.9 | 0.00 | 0.00 | 0.00 | 85 | 1014.4 |
| 20260507224547 | 55 | 270 | 0.0 | 0.9 | 0.00 | 0.00 | 0.00 | 84 | 1014.4 |
| 20260507223132 | 55 | 270 | 0.0 | 0.9 | 0.00 | 0.00 | 0.00 | 84 | 1014.3 |
| 20260507221545 | 55 | 270 | 0.0 | 0.0 | 0.00 | 0.00 | 0.00 | 84 | 1014.3 |
| 20260507220043 | 55 | 264 | 0.0 | 0.0 | 0.00 | 0.00 | 0.00 | 84 | 1014.2 |
| 20260507214552 | 55 | 281 | 0.0 | 1.7 | 0.00 | 0.00 | 0.00 | 83 | 1014.1 |
| 20260507213045 | 55 | 245 | 0.0 | 0.9 | 0.00 | 0.00 | 0.00 | 82 | 1014.1 |
| 20260507211542 | 55 | 245 | 0.0 | 0.0 | 0.00 | 0.00 | 0.00 | 81 | 1014.1 |
| 20260507210046 | 56 | 245 | 0.0 | 0.0 | 0.00 | 0.00 | 0.00 | 80 | 1014.0 |
| 20260507204543 | 56 | 245 | 0.0 | 0.9 | 0.00 | 0.00 | 0.00 | 79 | 1014.0 |
| 20260507203042 | 56 | 245 | 0.0 | 0.9 | 0.00 | 0.00 | 0.00 | 77 | 1013.7 |
| 20260507201540 | 57 | 252 | 0.0 | 1.7 | 0.00 | 0.00 | 0.00 | 75 | 1013.5 |
| 20260507200050 | 58 | 264 | 0.0 | 0.9 | 0.00 | 0.00 | 0.00 | 72 | 1013.4 |
| 20260507194535 | 58 | 145 | 0.0 | 0.9 | 0.00 | 0.00 | 0.00 | 72 | 1013.2 |
| 20260507193044 | 59 | 145 | 0.0 | 0.0 | 0.00 | 0.00 | 0.00 | 70 | 1012.9 |
| 20260507191533 | 60 | 145 | 0.0 | 0.9 | 0.00 | 0.00 | 0.00 | 69 | 1012.9 |
| 20260507190037 | 61 | 145 | 0.0 | 0.9 | 0.00 | 0.00 | 0.00 | 66 | 1012.6 |
| 20260507184532 | 62 | 134 | 0.9 | 4.3 | 0.00 | 0.00 | 0.00 | 62 | 1012.5 |
| 20260507183038 | 63 | 104 | 0.9 | 5.2 | 0.00 | 0.00 | 0.00 | 61 | 1012.3 |
| 20260507181534 | 63 | 82 | 3.5 | 7.8 | 0.00 | 0.00 | 0.00 | 61 | 1012.0 |
| 20260507180030 | 63 | 99 | 5.2 | 8.7 | 0.00 | 0.00 | 0.00 | 60 | 1011.9 |
| 20260507174529 | 63 | 95 | 6.1 | 9.6 | 0.00 | 0.00 | 0.00 | 60 | 1011.7 |
| 20260507173029 | 63 | 82 | 0.9 | 8.7 | 0.00 | 0.00 | 0.00 | 61 | 1011.4 |
| 20260507171528 | 64 | 76 | 1.7 | 8.7 | 0.00 | 0.00 | 0.00 | 60 | 1011.4 |
| 20260507170028 | 65 | 79 | 3.5 | 9.6 | 0.00 | 0.00 | 0.00 | 58 | 1011.3 |
| 20260507164527 | 66 | 53 | 4.3 | 10.4 | 0.00 | 0.00 | 0.00 | 57 | 1011.2 |
| 20260507163029 | 67 | 113 | 4.3 | 8.7 | 0.00 | 0.00 | 0.00 | 57 | 1011.1 |
| 20260507161530 | 67 | 99 | 6.1 | 10.4 | 0.00 | 0.00 | 0.00 | 56 | 1011.0 |
| 20260507160026 | 67 | 159 | 3.5 | 12.2 | 0.00 | 0.00 | 0.00 | 56 | 1011.0 |
| 20260507154528 | 66 | 55 | 7.0 | 13.0 | 0.00 | 0.00 | 0.00 | 55 | 1010.8 |
| 20260507153025 | 66 | 130 | 4.3 | 13.0 | 0.00 | 0.00 | 0.00 | 56 | 1010.9 |
| 20260507151526 | 67 | 148 | 3.5 | 10.4 | 0.00 | 0.00 | 0.00 | 57 | 1010.9 |
| 20260507150023 | 67 | 91 | 6.1 | 12.2 | 0.00 | 0.00 | 0.00 | 56 | 1011.0 |
| 20260507144528 | 67 | 81 | 5.2 | 13.0 | 0.00 | 0.00 | 0.00 | 56 | 1011.2 |
| 20260507143023 | 67 | 99 | 6.1 | 12.2 | 0.00 | 0.00 | 0.00 | 56 | 1011.1 |
| 20260507140018 | 67 | 80 | 5.2 | 10.4 | 0.00 | 0.00 | 0.00 | 56 | 1011.2 |
| 20260507134517 | 67 | 148 | 5.2 | 11.3 | 0.00 | 0.00 | 0.00 | 56 | 1011.2 |
| 20260507133017 | 67 | 124 | 4.3 | 13.0 | 0.00 | 0.00 | 0.00 | 57 | 1011.2 |
| 20260507131523 | 67 | 115 | 4.3 | 13.0 | 0.00 | 0.00 | 0.00 | 56 | 1011.5 |
| 20260507130015 | 67 | 100 | 4.3 | 11.3 | 0.00 | 0.00 | 0.00 | 57 | 1011.7 |
| 20260507124513 | 66 | 120 | 5.2 | 12.2 | 0.00 | 0.00 | 0.00 | 57 | 1011.6 |
| 20260507123013 | 66 | 76 | 3.5 | 11.3 | 0.00 | 0.00 | 0.00 | 61 | 1011.7 |
| 20260507121510 | 65 | 128 | 4.3 | 11.3 | 0.00 | 0.00 | 0.00 | 59 | 1011.8 |
| 20260507120009 | 65 | 55 | 6.1 | 12.2 | 0.00 | 0.00 | 0.00 | 60 | 1011.9 |
| 20260507114508 | 65 | 104 | 3.5 | 13.9 | 0.00 | 0.00 | 0.00 | 60 | 1012.0 |
| 20260507113007 | 65 | 97 | 6.1 | 13.0 | 0.00 | 0.00 | 0.00 | 58 | 1012.1 |
| 20260507111507 | 65 | 78 | 6.1 | 12.2 | 0.00 | 0.00 | 0.00 | 58 | 1012.3 |
| 20260507110005 | 64 | 134 | 4.3 | 12.2 | 0.00 | 0.00 | 0.00 | 57 | 1012.4 |
| 20260507104504 | 64 | 130 | 5.2 | 13.9 | 0.00 | 0.00 | 0.00 | 58 | 1012.4 |
| 20260507103003 | 64 | 134 | 4.3 | 10.4 | 0.00 | 0.00 | 0.00 | 56 | 1012.5 |
| 20260507101603 | 63 | 115 | 5.2 | 10.4 | 0.00 | 0.00 | 0.00 | 59 | 1012.5 |
| 20260507100113 | 63 | 84 | 3.5 | 9.6 | 0.00 | 0.00 | 0.00 | 57 | 1012.6 |
| 20260507094557 | 62 | 103 | 1.7 | 6.1 | 0.00 | 0.00 | 0.00 | 61 | 1012.6 |
| 20260507093100 | 61 | 108 | 1.7 | 7.0 | 0.00 | 0.00 | 0.00 | 59 | 1012.7 |
| 20260507091556 | 61 | 175 | 1.7 | 5.2 | 0.00 | 0.00 | 0.00 | 59 | 1012.8 |
| 20260507090051 | 60 | 87 | 0.9 | 6.1 | 0.00 | 0.00 | 0.00 | 63 | 1012.9 |
| 20260507084551 | 59 | 93 | 2.6 | 6.1 | 0.00 | 0.00 | 0.00 | 67 | 1012.9 |
| 20260507083105 | 59 | 135 | 0.0 | 5.2 | 0.00 | 0.00 | 0.00 | 67 | 1013.0 |
| 20260507081556 | 60 | 253 | 0.9 | 4.3 | 0.00 | 0.00 | 0.00 | 65 | 1013.1 |
| 20260507080044 | 59 | 268 | 0.0 | 2.6 | 0.00 | 0.00 | 0.00 | 57 | 1013.2 |
| 20260507074541 | 58 | 202 | 0.0 | 2.6 | 0.00 | 0.02 | 0.00 | 58 | 1013.1 |
| 20260507073050 | 57 | 150 | 0.9 | 2.6 | 0.00 | 0.02 | 0.00 | 61 | 1013.2 |
| 20260507071537 | 57 | 139 | 0.9 | 2.6 | 0.00 | 0.02 | 0.00 | 60 | 1013.0 |
| 20260507070039 | 54 | 214 | 0.0 | 0.9 | 0.00 | 0.02 | 0.00 | 67 | 1013.0 |
| 20260507064536 | 51 | 359 | 0.0 | 2.6 | 0.00 | 0.02 | 0.00 | 73 | 1013.0 |
| 20260507063031 | 48 | 269 | 0.0 | 3.5 | 0.00 | 0.02 | 0.00 | 78 | 1012.9 |
| 20260507061527 | 45 | 277 | 0.0 | 2.6 | 0.00 | 0.02 | 0.00 | 87 | 1012.8 |
| 20260507060030 | 42 | 335 | 0.0 | 2.6 | 0.00 | 0.02 | 0.00 | 87 | 1012.9 |
| 20260507054526 | 42 | 269 | 0.0 | 2.6 | 0.00 | 0.08 | 0.00 | 87 | 1012.8 |
| 20260507053022 | 42 | 337 | 0.0 | 2.6 | 0.00 | 0.08 | 0.00 | 87 | 1012.7 |
| 20260507051520 | 42 | 276 | 0.0 | 0.0 | 0.00 | 0.08 | 0.00 | 87 | 1012.6 |
| 20260507050028 | 42 | 260 | 0.0 | 2.6 | 0.00 | 0.08 | 0.00 | 86 | 1012.2 |
| 20260507044516 | 42 | 8 | 0.0 | 1.7 | 0.00 | 0.19 | 0.00 | 86 | 1012.0 |
| 20260507043015 | 42 | 233 | 0.0 | 2.6 | 0.00 | 0.19 | 0.00 | 86 | 1011.7 |
| 20260507041527 | 42 | 338 | 0.0 | 2.6 | 0.00 | 0.19 | 0.00 | 86 | 1011.5 |
| 20260507040013 | 42 | 5 | 0.0 | 0.0 | 0.00 | 0.19 | 0.00 | 84 | 1011.6 |
| 20260507034516 | 43 | 243 | 0.0 | 1.7 | 0.00 | 0.20 | 0.00 | 84 | 1011.6 |
| 20260507033010 | 43 | 314 | 0.0 | 3.5 | 0.00 | 0.20 | 0.00 | 84 | 1011.7 |
| 20260507031509 | 43 | 251 | 0.0 | 1.7 | 0.00 | 0.20 | 0.00 | 85 | 1011.8 |
| 20260507030006 | 43 | 284 | 0.9 | 2.6 | 0.00 | 0.20 | 0.00 | 85 | 1011.9 |
| 20260507024506 | 43 | 277 | 0.0 | 1.7 | 0.00 | 0.20 | 0.00 | 85 | 1011.9 |
| 20260507023005 | 43 | 262 | 0.0 | 3.5 | 0.00 | 0.20 | 0.00 | 85 | 1011.9 |
| 20260507021504 | 43 | 256 | 0.0 | 5.2 | 0.00 | 0.20 | 0.00 | 86 | 1011.8 |
| 20260507020002 | 43 | 259 | 0.9 | 1.7 | 0.00 | 0.21 | 0.00 | 86 | 1011.6 |
| 20260507014608 | 43 | 5 | 0.0 | 0.0 | 0.00 | 0.21 | 0.00 | 84 | 1011.6 |
| 20260507013057 | 44 | 5 | 0.0 | 0.0 | 0.00 | 0.21 | 0.00 | 83 | 1011.4 |
| 20260507011554 | 44 | 5 | 0.0 | 1.7 | 0.00 | 0.21 | 0.00 | 81 | 1011.0 |
| 20260507010051 | 45 | 91 | 0.0 | 1.7 | 0.00 | 0.21 | 0.00 | 79 | 1010.9 |
| 20260507004547 | 47 | 281 | 0.0 | 1.7 | 0.00 | 0.22 | 0.00 | 77 | 1010.7 |
| 20260507003046 | 48 | 290 | 0.9 | 3.5 | 0.00 | 0.22 | 0.00 | 75 | 1010.7 |
| 20260507001547 | 49 | 243 | 0.0 | 2.6 | 0.00 | 0.22 | 0.00 | 73 | 1010.6 |
| 20260507000044 | 47 | 220 | 0.0 | 2.6 | 0.00 | 0.22 | 0.00 | 76 | 1010.7 |